Gainesville, GA

5:37 PM EDT on May 25, 2017 (GMT -0400)
Gilmer Memorial

Weather History for KGVL - April, 2013

Change the Weather History Date:

Monday, April 15, 2013

  Actual Average Record
Temperature  
Mean Temperature 64 °F 60 °F  
Max Temperature 73 °F 71 °F 88 °F (1954)
Min Temperature 54 °F 50 °F 25 °F (1943)
Degree Days  
Heating Degree Days 1 6  
Month to date heating degree days 90 111  
Since 1 July heating degree days 116 2963  
Cooling Degree Days 0 1  
Month to date cooling degree days 15 13  
Year to date cooling degree days 15 18  
Growing Degree Days 13 (Base 50)    
Moisture  
Dew Point 54 °F    
Average Humidity 77    
Maximum Humidity 100    
Minimum Humidity 53    
Precipitation  
Precipitation 0.04 in 0.09 in 1.50 in (1944)
Month to date precipitation 2.64 1.74  
Year to date precipitation 3.35 17.06  
Snow  
Snow 0.00 in - - ()
Month to date snowfall 0.0  
Since 1 July snowfall 0.0  
Snow Depth 0.00 in    
Sea Level Pressure  
Sea Level Pressure 30.05 in    
Wind  
Wind Speed 5 mph (East)    
Max Wind Speed 10 mph    
Max Gust Speed 16 mph    
Visibility 6 miles    
Events Fog , Rain    
T = Trace of Precipitation, MM = Missing Value Source: NWS Daily Summary

Daily Weather History Graph

Daily Weather History Graph

Search for Another Location

Airport or City:

Trip Planner

Search our weather history database for the weather conditions in past years. The results will help you decide how hot, cold, wet, or windy it might be!

Date:

Astronomy

Apr. 15, 2013 Rise Set
Actual Time 7:03 AM EDT 8:07 PM EDT
Civil Twilight 6:38 AM EDT 8:33 PM EDT
Nautical Twilight 6:07 AM EDT 9:03 PM EDT
Astronomical Twilight 5:35 AM EDT 9:35 PM EDT
Moon 10:36 AM EDT (4/15) 12:11 AM EDT (4/15)
Length of Visible Light 13h 55m
Length of Day
13h 03m
Waxing Crescent, 24% of the Moon is Illuminated
Apr 15
Waxing Crescent
Apr 18
First Quarter
Apr 25
Full
May 2
Last Quarter
May 9
New

Hourly Weather History & Observations

Time (EDT) Temp. Dew Point Humidity Pressure Visibility Wind Dir Wind Speed Gust Speed Precip Events Conditions
12:44 AM 55.4 °F 51.8 °F 88% 29.99 in 10.0 mi East 6.9 mph - N/A   Overcast
12:53 AM 55.0 °F 52.0 °F 89% 29.97 in 9.0 mi East 8.1 mph - N/A   Overcast
1:44 AM 53.6 °F 53.6 °F 100% 29.99 in 4.0 mi East 5.8 mph - 0.02 in Rain Light Rain
1:53 AM 54.0 °F 53.1 °F 97% 29.97 in 5.0 mi East 4.6 mph - 0.02 in Rain Light Rain
2:53 AM 55.0 °F 53.1 °F 93% 29.95 in 6.0 mi East 5.8 mph - 0.01 in   Overcast
3:13 AM 53.6 °F 53.6 °F 100% 29.96 in 5.0 mi East 4.6 mph - N/A   Overcast
3:53 AM 55.0 °F 53.1 °F 93% 29.96 in 4.0 mi East 8.1 mph - N/A   Overcast
4:53 AM 55.0 °F 53.1 °F 93% 29.98 in 3.0 mi East 5.8 mph - 0.00 in Rain Light Rain
5:53 AM 55.0 °F 53.1 °F 93% 29.98 in 4.0 mi East 5.8 mph - 0.01 in   Overcast
6:24 AM 55.4 °F 53.6 °F 94% 30.00 in 2.5 mi East 4.6 mph - N/A   Overcast
6:35 AM 55.4 °F 53.6 °F 94% 30.01 in 2.0 mi ENE 4.6 mph - N/A   Overcast
6:40 AM 55.4 °F 53.6 °F 94% 30.01 in 1.5 mi ENE 4.6 mph - N/A   Overcast
6:53 AM 55.0 °F 54.0 °F 96% 29.99 in 1.2 mi East 5.8 mph - N/A   Overcast
7:08 AM 55.4 °F 53.6 °F 94% 30.01 in 0.8 mi East 5.8 mph - N/A   Overcast
7:53 AM 54.0 °F 54.0 °F 100% 30.02 in 0.5 mi East 6.9 mph - N/A Fog Fog
8:53 AM 55.0 °F 54.0 °F 96% 30.04 in 1.0 mi ENE 4.6 mph - N/A   Overcast
9:20 AM 55.4 °F 55.4 °F 100% 30.07 in 0.8 mi ENE 4.6 mph - N/A   Overcast
9:48 AM 55.4 °F 55.4 °F 100% 30.07 in 1.0 mi ENE 4.6 mph - N/A   Overcast
9:53 AM 55.9 °F 55.0 °F 97% 30.06 in 1.2 mi East 3.5 mph - N/A   Overcast
10:02 AM 57.2 °F 55.4 °F 94% 30.08 in 2.0 mi East 4.6 mph - N/A   Overcast
10:10 AM 55.4 °F 55.4 °F 100% 30.08 in 3.0 mi East 4.6 mph - N/A   Overcast
10:34 AM 57.2 °F 55.4 °F 94% 30.09 in 4.0 mi Calm Calm - N/A   Overcast
10:53 AM 57.9 °F 55.9 °F 93% 30.07 in 6.0 mi Calm Calm - N/A   Overcast
11:05 AM 59.0 °F 55.4 °F 88% 30.09 in 7.0 mi Calm Calm - N/A   Overcast
11:23 AM 62.6 °F 55.4 °F 77% 30.09 in 8.0 mi Calm Calm - N/A   Overcast
11:42 AM 62.6 °F 55.4 °F 77% 30.09 in 8.0 mi North 3.5 mph - N/A   Overcast
11:50 AM 62.6 °F 55.4 °F 77% 30.09 in 7.0 mi North 3.5 mph - N/A   Overcast
11:53 AM 63.0 °F 55.0 °F 75% 30.07 in 7.0 mi Calm Calm - N/A   Overcast
12:14 PM 62.6 °F 53.6 °F 72% 30.10 in 9.0 mi Calm Calm - N/A   Mostly Cloudy
12:53 PM 66.9 °F 54.0 °F 63% 30.06 in 10.0 mi Calm Calm - N/A   Mostly Cloudy
1:23 PM 69.8 °F 53.6 °F 56% 30.09 in 10.0 mi Variable 4.6 mph - N/A   Scattered Clouds
1:34 PM 69.8 °F 53.6 °F 56% 30.09 in 10.0 mi NNE 4.6 mph - N/A   Mostly Cloudy
1:43 PM 68.0 °F 53.6 °F 60% 30.09 in 10.0 mi Calm Calm - N/A   Mostly Cloudy
1:53 PM 70.0 °F 54.0 °F 57% 30.06 in 10.0 mi Variable 3.5 mph - N/A   Mostly Cloudy
2:53 PM 70.0 °F 54.0 °F 57% 30.06 in 10.0 mi Calm Calm - N/A   Overcast
3:53 PM 71.1 °F 54.0 °F 55% 30.06 in 10.0 mi Variable 3.5 mph - N/A   Overcast
4:53 PM 72.0 °F 55.0 °F 55% 30.04 in 10.0 mi South 6.9 mph - N/A   Scattered Clouds
5:53 PM 73.0 °F 55.0 °F 53% 30.04 in 10.0 mi South 8.1 mph - N/A   Scattered Clouds
6:53 PM 71.1 °F 54.0 °F 55% 30.06 in 10.0 mi SSE 3.5 mph - N/A   Clear
7:53 PM 69.1 °F 57.0 °F 65% 30.09 in 10.0 mi East 5.8 mph - N/A   Mostly Cloudy
8:53 PM 66.9 °F 57.0 °F 70% 30.11 in 10.0 mi East 8.1 mph - N/A   Mostly Cloudy
9:53 PM 66.0 °F 57.0 °F 73% 30.14 in 10.0 mi East 6.9 mph - N/A   Overcast
10:53 PM 64.9 °F 57.0 °F 75% 30.16 in 10.0 mi East 4.6 mph - N/A   Mostly Cloudy
11:53 PM 64.9 °F 57.9 °F 78% 30.17 in 10.0 mi East 4.6 mph - N/A   Overcast